Dewpoint
44 45 53 58 59 58 55 51 49 46 44 44 42 37 35 34 33 33 34 33 33 32 33 32 32 32 32 31 32 31 30 30 28 27 27 28 28 28 29 30 30 28 29
46 47 48 50 55 54 54 50 46 43 42 39 37 34 32 32 32 32 30 30 30 31 31 31 30 29 30 30 30 29 29 29 28 27 27 26 28 28 30 30 29 27 30
46 48 49 50 51 51 49 46 44 39 38 34 34 32 31 31 30 31 29 30 29 29 29 29 28 29 30 30 29 29 29 26 28 29 28 29 29 29 30 30 29 31 27
45 46 47 48 48 47 44 41 40 36 34 32 32 30 31 30 30 31 30 29 28 28 29 29 29 30 30 30 29 30 30 31 30 30 29 28 29 29 30 28 27 29 29
43 44 45 43 43 40 38 37 34 34 32 33 30 30 30 30 29 31 30 30 29 29 30 29 30 30 30 30 29 31 30 30 30 29 28 28 27 26 27 27 27 28 28
41 42 40 38 36 36 34 33 32 31 31 30 29 30 30 28 32 32 31 30 29 29 29 29 29 30 29 29 29 29 29 30 32 30 28 26 26 27 28 27 26 25 24
40 38 36 36 35 34 32 31 30 30 30 28 29 30 30 30 33 33 32 29 29 28 29 29 29 28 30 28 28 28 28 27 28 29 29 27 28 30 31 28 26 25 25
39 36 35 35 34 32 31 31 30 29 28 28 28 30 31 32 34 33 31 30 29 29 29 30 29 29 29 30 29 30 29 30 30 31 31 31 32 33 32 30 28 26 26
37 36 34 34 34 32 31 30 28 28 28 29 30 32 32 34 35 33 30 30 29 29 29 30 30 30 28 29 31 31 32 33 31 30 31 28 26 27 28 29 26 24 24
37 36 34 34 35 33 32 30 30 30 29 28 30 32 32 34 34 32 30 31 31 29 30 30 30 31 29 28 32 32 29 32 33 32 32 32 29 28 27 29 27 24 24
36 35 34 33 34 33 32 30 30 30 30 30 30 31 32 33 34 33 32 31 30 30 30 30 30 30 30 29 29 33 32 33 32 33 32 31 30 29 28 27 27 25 23
34 33 33 33 33 33 32 31 30 30 30 30 30 28 29 31 32 34 33 32 32 32 31 30 31 29 29 29 29 30 30 29 32 30 29 28 28 27 26 27 27 26 25
33 32 32 32 33 32 32 30 30 30 29 28 27 27 26 27 29 31 33 34 33 32 31 31 29 28 28 29 29 30 28 28 27 27 25 25 26 26 27 26 27 25 23
33 32 32 31 32 32 31 30 30 29 28 28 27 27 26 26 26 29 32 33 32 32 30 30 28 28 28 29 27 26 25 25 24 25 25 24 25 24 24 24 23 23 22
33 31 32 32 31 31 30 30 29 30 29 29 28 27 26 26 26 28 30 31 31 31 30 29 27 27 27 26 25 23 22 22 21 22 23 23 22 22 22 22 21 21 19
31 30 30 30 29 29 29 28 28 29 28 29 28 28 28 26 26 28 28 29 30 30 27 25 25 26 24 24 23 21 19 18 19 21 21 21 20 20 20 20 20 19 19
32 31 29 28 28 28 28 27 26 25 26 27 27 28 29 27 29 29 30 30 30 28 26 25 25 24 23 21 19 18 17 17 17 17 18 19 18 18 17 17 18 18 18
29 28 30 29 28 28 28 27 27 26 26 26 28 29 29 28 29 30 31 31 28 27 27 25 23 23 21 18 16 15 15 14 14 15 16 16 16 16 16 16 16 16 16
30 29 28 29 28 28 27 27 26 25 25 26 27 28 29 29 30 31 31 28 26 25 22 21 21 19 16 15 14 14 13 13 13 14 14 13 13 13 13 13 13 10 10
28 25 27 28 27 26 26 26 25 24 25 25 24 25 28 29 27 27 28 28 25 24 22 19 17 15 14 12 12 10 10 10 10 10 11 12 11 11 10 10 10 9 9
26 27 26 26 27 26 27 26 25 25 24 24 24 25 26 26 25 26 26 26 23 22 19 17 15 11 10 9 9 8 8 10 10 10 9 9 8 8 8 8 8 6 5
23 25 26 26 26 25 26 26 25 25 24 24 24 25 27 24 25 25 25 24 21 21 18 15 12 10 8 7 6 7 6 6 7 6 7 6 6 7 6 6 5 5 6
18 20 22 22 23 23 23 23 23 24 23 23 23 19 20 23 21 21 22 19 16 13 11 10 9 7 6 5 6 7 6 6 6 6 6 5 5 6 5 5 5 4 5
14 15 15 17 18 17 18 19 19 17 18 18 17 16 15 18 20 16 16 15 11 10 7 5 6 6 5 3 3 4 4 5 5 4 3 4 4 3 3 3 3 2 2
11 12 12 14 15 16 16 17 17 17 16 15 15 14 14 14 15 14 14 11 8 6 4 3 3 3 3 3 3 2 2 3 2 1 1 1 1 1 1 1 1 2 1
6 7 9 10 11 12 13 13 14 14 13 13 13 12 12 12 11 11 10 8 5 4 3 3 3 2 2 3 3 2 1 2 1 -0 1 1 1 -0 -1 -1 -1 -1 -0
Lifted_Index
6 5 4 4 3 2 1 1 0 -0 -0 0 2 3 4 5 6 7 10 13 15 16 15 15 15 15 16 16 16 16 15 15 14 15 16 17 18 18 18 18 19 19 19
7 7 6 6 5 4 3 2 1 0 0 1 2 3 4 5 6 8 11 14 15 15 15 15 15 15 15 16 16 15 15 15 15 14 15 16 17 18 18 18 18 18 18
8 8 8 8 8 7 5 4 3 2 1 1 2 3 4 6 8 11 14 15 15 15 15 15 15 15 15 15 15 15 15 15 15 15 15 15 16 17 17 17 17 17 18
9 9 9 9 9 8 7 5 4 3 2 2 2 3 4 6 9 12 15 15 15 15 15 16 16 16 16 15 15 15 15 15 15 14 14 15 15 16 16 17 17 17 17
9 9 8 8 8 8 7 6 4 3 2 2 3 3 5 7 11 14 15 15 15 15 15 16 16 16 16 15 15 14 14 14 14 14 14 14 14 15 16 16 16 16 16
8 8 8 7 7 7 6 5 3 2 2 3 3 3 5 8 12 14 15 15 15 15 15 16 16 17 16 15 14 14 14 14 14 14 14 14 14 15 16 16 16 16 16
7 7 7 6 6 5 5 4 2 2 2 2 3 3 6 9 13 14 15 15 15 15 16 16 16 16 15 14 14 14 14 15 14 14 14 14 15 16 16 16 16 16 15
7 7 6 6 5 4 4 3 2 1 2 2 2 4 7 11 13 14 15 15 15 16 16 16 16 15 14 14 14 14 14 15 15 16 16 16 16 16 16 16 16 15 15
6 6 6 6 5 4 3 2 1 1 1 2 3 5 9 12 14 15 15 15 16 16 16 15 14 13 14 14 14 14 14 15 16 16 17 17 17 17 16 16 15 14 14
6 6 6 6 5 4 3 2 2 1 1 2 5 8 11 13 14 15 16 16 16 16 15 13 12 13 14 15 15 15 15 15 16 16 16 17 17 16 16 15 15 13 13
6 6 6 6 6 5 4 3 3 2 2 3 6 10 13 14 15 16 16 16 16 15 13 12 12 13 15 16 16 16 16 16 16 16 16 16 16 15 15 15 14 13 12
7 7 7 7 6 6 5 4 3 3 3 5 7 10 13 14 15 16 17 16 15 13 12 12 12 14 16 16 16 16 16 16 16 15 15 15 15 15 14 14 14 13 12
7 7 7 7 7 7 6 5 5 4 5 6 8 10 12 14 15 16 16 15 13 12 11 12 14 16 16 17 17 17 17 16 16 15 15 15 15 14 14 13 13 12 12
6 7 7 7 7 7 7 7 6 6 7 7 9 10 12 13 15 15 15 13 11 11 12 13 15 16 17 17 17 17 17 16 16 15 15 15 14 14 13 13 12 11 11
6 6 6 6 7 7 7 8 8 8 9 9 10 11 13 14 14 14 13 11 11 11 12 14 16 16 16 16 16 16 16 16 16 15 15 14 13 13 13 12 11 11 10
6 6 6 6 6 6 7 7 8 9 11 11 12 13 14 14 14 13 12 11 11 11 13 14 16 16 16 15 15 16 16 16 15 15 14 13 13 13 12 12 11 10 9
7 6 6 5 5 5 6 6 7 8 10 11 13 14 15 15 14 12 11 11 11 12 14 15 15 15 15 15 15 15 15 15 15 14 13 13 13 12 12 11 11 10 9
7 7 6 5 5 5 6 6 6 7 8 10 12 13 14 14 13 11 11 11 11 13 14 14 15 15 15 15 15 15 15 14 14 13 13 13 12 12 11 11 10 10 9
8 8 7 6 6 6 6 6 6 7 7 9 11 13 13 13 12 11 11 11 11 12 13 14 15 15 15 15 15 14 14 13 13 13 12 12 12 12 11 11 10 10 10
9 9 8 8 7 6 6 6 7 7 7 9 11 12 12 12 11 10 10 10 10 11 12 13 14 14 14 14 14 13 13 13 12 12 12 12 12 12 11 11 11 10 10
11 11 10 9 8 7 7 7 7 7 8 9 10 11 11 11 10 9 9 9 9 10 12 13 13 13 13 13 13 13 12 12 12 12 12 12 12 12 12 11 11 11 11
12 12 11 10 9 8 8 8 8 8 8 9 10 11 11 10 9 9 8 8 9 11 13 13 13 13 13 13 13 12 12 12 12 12 12 12 12 12 12 11 11 12 12
14 13 13 12 11 10 9 8 8 8 9 9 10 11 11 10 9 8 8 8 9 12 13 13 12 12 12 13 13 13 12 12 13 13 13 12 12 12 12 12 12 12 12
15 15 14 13 12 11 10 9 9 9 9 9 10 10 10 10 9 9 8 9 11 12 13 13 13 12 12 13 13 13 13 14 14 14 14 13 13 13 13 12 12 13 13
15 15 14 14 13 13 12 11 10 9 9 9 10 10 10 10 9 9 8 9 11 12 13 13 13 13 13 13 14 14 14 15 15 15 14 14 14 13 13 13 13 14 14
15 15 14 14 14 13 13 12 11 10 9 9 9 9 9 9 9 8 9 10 11 12 12 13 13 13 13 14 14 14 15 15 15 15 15 15 14 14 14 14 14 14 14